DECAYED

STARLINK-30183, 57436 (Decayed)

Orbit data source: Space-Track

STARLINK-30183, 57436 was a payload satellite owned by SpaceX/Seattle (US) in LEO that was launched on Mon, 24 Jul 2023 UTC via an FALCON 9 launch vehicle from the Air Force Eastern Test Range (AFETR). Payload-class satellites include a variety of spacecraft equipped with specific instruments for various scientific and technological missions. These include communications satellites like Starlink; space stations such as the ISS; scientific satellites like the Hubble; Earth observation satellites from companies like Planet Labs, Umbra, and HawkEye 360; GPS; miniature CubeSats for education and research; and military/defense satellites.

Not visible in the next 10 days
Identifier
57436, 2023-105G
Orbit
Decayed
Country
Flag of USUS
Related business
Manufacturer
SpaceX/Seattle
Mission
Decayed Commercial Communications
Bus & Motor
STARLINK V2M, Unknown motor
Mass
730 kg wet, ~700 kg dry
Launch date (UTC)
2023-07-24 (3 years ago)
Launch vehicle
FALCON 9
Launch site
Air Force Eastern Test Range (AFETR)
Object type
Payload
Rocket body
Debris
Shape & HBR
Box + 2 Pan, 17.7 m
Radar Cross Section
33.884 m², Large (>1 m²)

Expand to show TLE details & history
Last TLE update: 5 months ago

TLE from 5 months ago
0 STARLINK-30183
1 57436U 23105G   26030.33393188  .04163866  89179-5  14400-2 0  9999
2 57436  42.9640  19.0992 0014043 139.0403 221.1541 16.24088224140855
Epoch: 2026-01-30T08:00Z
TLE epoch observation values (Epoch: 2026-01-30T08:00:51.714Z)
Latitude
-0.00001°
Longitude
129.30995°
Altitude
215.206 km
Speed
7.775 km/s
True Right ascension
01h 16m 23s
True Declination
0° 00' 00"
Sunlit
Object was in daylight at epoch
Visualization orbit readout
Latitude
Unknown
Longitude
Unknown
Altitude
Unknown
Speed
Unknown
Apparent Right ascension
Unknown
Apparent Declination
Unknown
Sunlit
N/A
Visualization observer readout
Local Sidereal Time
21:30:03
Azimuth
Unknown
Elevation
Unknown
Doppler factor
Unknown
Orbital elements
Apogee altitude
219.76 km
Perigee altitude
201.255 km
Semi-major axis
6,588.644 km
Eccentricity
0.0014
Inclination
42.964°
RAAN
19.0992°
Arg. of periapsis
139.0403°
True anomaly
221.04834°
Mean anomaly
221.1541°
Eccentric anomaly
221.10121°
Mean motion
4.05835 °/min
Orbital period
88.71 mins
BSTAR
0.00144
Loading maneuver chart data...
Computing Atmospheric mass density...
Loading historical data...
Loading historical data...
Loading historical data...
Loading historical data...
Loading historical data...
Loading historical data...
Loading historical data...

Documentation

Showing up to 5 results
|